Wetterdaten: Samstag, 23.01.2016
Datum Zeit Temp. A. Feuchte A. Luftdruck Regen Wind Richtung Richtung Sonnenschein ET UV Solar Taupunkt Windchill Windben Empfang
23.01.2016 00:00 -12,3 C 92 % 1032,8 hPa 0,0 l/m 1,2 km/h (1 Bft) S-SW 194 0 min 0,000 mm 0,0 UV-I 0 W/m -13,3 C -12,3 C 3,2 km/h (1 Bft) 99,11 %
23.01.2016 00:05 -12,3 C 91 % 1033,0 hPa 0,0 l/m 2,2 km/h (1 Bft) S-SW 194 0 min 0,000 mm 0,0 UV-I 0 W/m -13,5 C -12,3 C 3,2 km/h (1 Bft) 99,07 %
23.01.2016 00:10 -12,8 C 89 % 1032,8 hPa 0,0 l/m 1,9 km/h (1 Bft) S-SW 194 0 min 0,000 mm 0,0 UV-I 0 W/m -14,2 C -12,8 C 3,2 km/h (1 Bft) 99,21 %
23.01.2016 00:15 -12,9 C 91 % 1033,0 hPa 0,0 l/m 2,6 km/h (1 Bft) S-SW 194 0 min 0,000 mm 0,0 UV-I 0 W/m -14,1 C -12,9 C 4,8 km/h (1 Bft) 98,17 %
23.01.2016 00:20 -13,1 C 90 % 1032,9 hPa 0,0 l/m 2,4 km/h (1 Bft) S-SW 194 0 min 0,000 mm 0,0 UV-I 0 W/m -14,4 C -13,1 C 4,8 km/h (1 Bft) 95,93 %
23.01.2016 00:25 -12,8 C 91 % 1032,9 hPa 0,0 l/m 2,8 km/h (1 Bft) S-SW 194 0 min 0,000 mm 0,0 UV-I 0 W/m -14,0 C -12,8 C 4,8 km/h (1 Bft) 80,17 %
23.01.2016 00:30 -12,4 C 92 % 1032,8 hPa 0,0 l/m 1,2 km/h (1 Bft) S-SW 194 0 min 0,000 mm 0,0 UV-I 0 W/m -13,4 C -12,4 C 3,2 km/h (1 Bft) 97,50 %
23.01.2016 00:35 -12,5 C 91 % 1032,8 hPa 0,0 l/m 2,9 km/h (1 Bft) S-SW 194 0 min 0,000 mm 0,0 UV-I 0 W/m -13,7 C -12,5 C 3,2 km/h (1 Bft) 97,25 %
23.01.2016 00:40 -12,8 C 90 % 1032,8 hPa 0,0 l/m 1,5 km/h (1 Bft) S-SW 194 0 min 0,000 mm 0,0 UV-I 0 W/m -14,1 C -12,8 C 3,2 km/h (1 Bft) 97,52 %
23.01.2016 00:45 -12,9 C 91 % 1032,7 hPa 0,0 l/m 1,1 km/h (1 Bft) S-SW 194 0 min 0,000 mm 0,0 UV-I 0 W/m -14,1 C -12,9 C 3,2 km/h (1 Bft) 97,50 %
23.01.2016 00:50 -12,7 C 91 % 1032,7 hPa 0,0 l/m 1,7 km/h (1 Bft) S-SW 194 0 min 0,000 mm 0,0 UV-I 0 W/m -13,9 C -12,7 C 3,2 km/h (1 Bft) 95,54 %
23.01.2016 00:55 -12,9 C 90 % 1032,7 hPa 0,0 l/m 2,5 km/h (1 Bft) S-SW 194 0 min 0,000 mm 0,0 UV-I 0 W/m -14,2 C -12,9 C 3,2 km/h (1 Bft) 95,93 %
23.01.2016 01:00 -12,9 C 91 % 1032,6 hPa 0,0 l/m 2,7 km/h (1 Bft) S-SW 194 0 min 0,000 mm 0,0 UV-I 0 W/m -14,1 C -12,9 C 3,2 km/h (1 Bft) 98,17 %
23.01.2016 01:05 -13,2 C 90 % 1032,6 hPa 0,0 l/m 1,8 km/h (1 Bft) S-SW 194 0 min 0,000 mm 0,0 UV-I 0 W/m -14,5 C -13,2 C 3,2 km/h (1 Bft) 98,21 %
23.01.2016 01:10 -12,8 C 92 % 1032,6 hPa 0,0 l/m 2,4 km/h (1 Bft) S-SW 194 0 min 0,000 mm 0,0 UV-I 0 W/m -13,8 C -12,8 C 3,2 km/h (1 Bft) 100,00 %
23.01.2016 01:15 -12,8 C 91 % 1032,6 hPa 0,0 l/m 2,3 km/h (1 Bft) S-SW 194 0 min 0,000 mm 0,0 UV-I 0 W/m -14,0 C -12,8 C 4,8 km/h (1 Bft) 99,26 %
23.01.2016 01:20 -13,2 C 89 % 1032,6 hPa 0,0 l/m 3,8 km/h (1 Bft) S-SW 194 0 min 0,000 mm 0,0 UV-I 0 W/m -14,6 C -13,2 C 4,8 km/h (1 Bft) 100,00 %
23.01.2016 01:25 -13,6 C 90 % 1032,5 hPa 0,0 l/m 3,3 km/h (1 Bft) S-SW 194 0 min 0,000 mm 0,0 UV-I 0 W/m -14,9 C -13,6 C 4,8 km/h (1 Bft) 99,19 %
23.01.2016 01:30 -13,3 C 92 % 1032,5 hPa 0,0 l/m 3,0 km/h (1 Bft) S-SW 194 0 min 0,000 mm 0,0 UV-I 0 W/m -14,3 C -13,3 C 4,8 km/h (1 Bft) 100,00 %
23.01.2016 01:35 -12,9 C 92 % 1032,6 hPa 0,0 l/m 2,9 km/h (1 Bft) S-SW 194 0 min 0,000 mm 0,0 UV-I 0 W/m -13,9 C -12,9 C 4,8 km/h (1 Bft) 99,15 %
23.01.2016 01:40 -12,8 C 92 % 1032,5 hPa 0,0 l/m 3,0 km/h (1 Bft) S-SW 194 0 min 0,000 mm 0,0 UV-I 0 W/m -13,8 C -12,8 C 4,8 km/h (1 Bft) 100,00 %
23.01.2016 01:45 -12,9 C 91 % 1032,5 hPa 0,0 l/m 2,1 km/h (1 Bft) S-SW 194 0 min 0,000 mm 0,0 UV-I 0 W/m -14,1 C -12,9 C 3,2 km/h (1 Bft) 100,00 %
23.01.2016 01:50 -12,7 C 92 % 1032,5 hPa 0,0 l/m 0,6 km/h (0 Bft) S-SW 194 0 min 0,000 mm 0,0 UV-I 0 W/m -13,7 C -12,7 C 3,2 km/h (1 Bft) 99,17 %
23.01.2016 01:55 -12,4 C 92 % 1032,4 hPa 0,0 l/m 1,1 km/h (1 Bft) S-SW 194 0 min 0,000 mm 0,0 UV-I 0 W/m -13,4 C -12,4 C 3,2 km/h (1 Bft) 99,15 %
23.01.2016 02:00 -12,6 C 91 % 1032,4 hPa 0,0 l/m 3,0 km/h (1 Bft) S-SW 194 0 min 0,000 mm 0,0 UV-I 0 W/m -13,8 C -12,6 C 3,2 km/h (1 Bft) 100,00 %
23.01.2016 02:05 -12,9 C 89 % 1032,4 hPa 0,0 l/m 3,4 km/h (1 Bft) S-SW 194 0 min 0,000 mm 0,0 UV-I 0 W/m -14,3 C -12,9 C 4,8 km/h (1 Bft) 97,30 %
23.01.2016 02:10 -13,3 C 90 % 1032,4 hPa 0,0 l/m 2,7 km/h (1 Bft) S-SW 194 0 min 0,000 mm 0,0 UV-I 0 W/m -14,6 C -13,3 C 4,8 km/h (1 Bft) 99,19 %
23.01.2016 02:15 -13,2 C 91 % 1032,4 hPa 0,0 l/m 2,4 km/h (1 Bft) S-SW 194 0 min 0,000 mm 0,0 UV-I 0 W/m -14,3 C -13,2 C 3,2 km/h (1 Bft) 98,20 %
23.01.2016 02:20 -13,1 C 91 % 1032,3 hPa 0,0 l/m 1,5 km/h (1 Bft) S-SW 194 0 min 0,000 mm 0,0 UV-I 0 W/m -14,2 C -13,1 C 3,2 km/h (1 Bft) 100,00 %
23.01.2016 02:25 -13,1 C 91 % 1032,4 hPa 0,0 l/m 2,2 km/h (1 Bft) S-SW 194 0 min 0,000 mm 0,0 UV-I 0 W/m -14,2 C -13,1 C 3,2 km/h (1 Bft) 99,13 %
23.01.2016 02:30 -13,1 C 90 % 1032,3 hPa 0,0 l/m 2,9 km/h (1 Bft) S-SW 194 0 min 0,000 mm 0,0 UV-I 0 W/m -14,4 C -13,1 C 4,8 km/h (1 Bft) 99,19 %
23.01.2016 02:35 -13,2 C 90 % 1032,2 hPa 0,0 l/m 2,9 km/h (1 Bft) S-SW 194 0 min 0,000 mm 0,0 UV-I 0 W/m -14,5 C -13,2 C 3,2 km/h (1 Bft) 100,00 %
23.01.2016 02:40 -13,2 C 91 % 1032,0 hPa 0,0 l/m 1,1 km/h (1 Bft) S-SW 194 0 min 0,000 mm 0,0 UV-I 0 W/m -14,3 C -13,2 C 3,2 km/h (1 Bft) 98,26 %
23.01.2016 02:45 -12,9 C 92 % 1032,0 hPa 0,0 l/m 3,0 km/h (1 Bft) S-SW 194 0 min 0,000 mm 0,0 UV-I 0 W/m -13,9 C -12,9 C 4,8 km/h (1 Bft) 99,17 %
23.01.2016 02:50 -12,8 C 91 % 1031,9 hPa 0,0 l/m 2,4 km/h (1 Bft) S-SW 192 0 min 0,000 mm 0,0 UV-I 0 W/m -14,0 C -12,8 C 4,8 km/h (1 Bft) 98,26 %
23.01.2016 02:55 -12,8 C 91 % 1031,8 hPa 0,0 l/m 1,3 km/h (1 Bft) S-SW 192 0 min 0,000 mm 0,0 UV-I 0 W/m -14,0 C -12,8 C 3,2 km/h (1 Bft) 96,75 %
23.01.2016 03:00 -12,6 C 92 % 1031,8 hPa 0,0 l/m 1,1 km/h (1 Bft) S-SW 192 0 min 0,000 mm 0,0 UV-I 0 W/m -13,6 C -12,6 C 3,2 km/h (1 Bft) 96,43 %
23.01.2016 03:05 -12,4 C 91 % 1031,7 hPa 0,0 l/m 1,4 km/h (1 Bft) S-SW 192 0 min 0,000 mm 0,0 UV-I 0 W/m -13,6 C -12,4 C 3,2 km/h (1 Bft) 95,97 %
23.01.2016 03:10 -13,1 C 89 % 1031,6 hPa 0,0 l/m 2,0 km/h (1 Bft) S-SW 192 0 min 0,000 mm 0,0 UV-I 0 W/m -14,5 C -13,1 C 3,2 km/h (1 Bft) 98,20 %
23.01.2016 03:15 -13,1 C 91 % 1031,6 hPa 0,0 l/m 1,9 km/h (1 Bft) S-SW 192 0 min 0,000 mm 0,0 UV-I 0 W/m -14,2 C -13,1 C 3,2 km/h (1 Bft) 97,46 %
23.01.2016 03:20 -12,9 C 91 % 1031,6 hPa 0,0 l/m 1,4 km/h (1 Bft) S-SW 192 0 min 0,000 mm 0,0 UV-I 0 W/m -14,1 C -12,9 C 3,2 km/h (1 Bft) 97,32 %
23.01.2016 03:25 -13,0 C 90 % 1031,7 hPa 0,0 l/m 2,7 km/h (1 Bft) S-SW 192 0 min 0,000 mm 0,0 UV-I 0 W/m -14,3 C -13,0 C 6,4 km/h (2 Bft) 99,12 %
23.01.2016 03:30 -13,2 C 90 % 1031,7 hPa 0,0 l/m 3,8 km/h (1 Bft) S-SW 192 0 min 0,000 mm 0,0 UV-I 0 W/m -14,5 C -13,2 C 4,8 km/h (1 Bft) 98,35 %
23.01.2016 03:35 -13,0 C 91 % 1031,6 hPa 0,0 l/m 1,6 km/h (1 Bft) S-SW 192 0 min 0,000 mm 0,0 UV-I 0 W/m -14,2 C -13,0 C 4,8 km/h (1 Bft) 98,29 %
23.01.2016 03:40 -12,7 C 91 % 1031,6 hPa 0,0 l/m 0,4 km/h (0 Bft) S-SW 192 0 min 0,000 mm 0,0 UV-I 0 W/m -13,9 C -12,7 C 1,6 km/h (1 Bft) 97,39 %
23.01.2016 03:45 -12,4 C 92 % 1031,6 hPa 0,0 l/m 1,5 km/h (1 Bft) S-SW 192 0 min 0,000 mm 0,0 UV-I 0 W/m -13,4 C -12,4 C 3,2 km/h (1 Bft) 100,00 %
23.01.2016 03:50 -12,4 C 91 % 1031,6 hPa 0,0 l/m 1,7 km/h (1 Bft) S-SW 192 0 min 0,000 mm 0,0 UV-I 0 W/m -13,6 C -12,4 C 3,2 km/h (1 Bft) 99,15 %
23.01.2016 03:55 -12,4 C 91 % 1031,6 hPa 0,0 l/m 1,5 km/h (1 Bft) S-SW 192 0 min 0,000 mm 0,0 UV-I 0 W/m -13,6 C -12,4 C 3,2 km/h (1 Bft) 99,13 %
23.01.2016 04:00 -12,4 C 91 % 1031,6 hPa 0,0 l/m 1,9 km/h (1 Bft) S-SW 192 0 min 0,000 mm 0,0 UV-I 0 W/m -13,6 C -12,4 C 3,2 km/h (1 Bft) 100,00 %
23.01.2016 04:05 -12,4 C 91 % 1031,6 hPa 0,0 l/m 2,4 km/h (1 Bft) S-SW 192 0 min 0,000 mm 0,0 UV-I 0 W/m -13,6 C -12,4 C 3,2 km/h (1 Bft) 100,00 %
23.01.2016 04:10 -12,4 C 91 % 1031,7 hPa 0,0 l/m 1,9 km/h (1 Bft) S-SW 192 0 min 0,000 mm 0,0 UV-I 0 W/m -13,6 C -12,4 C 3,2 km/h (1 Bft) 100,00 %
23.01.2016 04:15 -12,4 C 91 % 1031,6 hPa 0,0 l/m 1,7 km/h (1 Bft) S-SW 192 0 min 0,000 mm 0,0 UV-I 0 W/m -13,6 C -12,4 C 3,2 km/h (1 Bft) 98,21 %
23.01.2016 04:20 -12,3 C 91 % 1031,5 hPa 0,0 l/m 1,7 km/h (1 Bft) S-SW 192 0 min 0,000 mm 0,0 UV-I 0 W/m -13,5 C -12,3 C 3,2 km/h (1 Bft) 98,37 %
23.01.2016 04:25 -12,2 C 91 % 1031,7 hPa 0,0 l/m 1,0 km/h (0 Bft) S-SW 192 0 min 0,000 mm 0,0 UV-I 0 W/m -13,4 C -12,2 C 3,2 km/h (1 Bft) 99,17 %
23.01.2016 04:30 -12,2 C 91 % 1031,6 hPa 0,0 l/m 1,9 km/h (1 Bft) S-SW 192 0 min 0,000 mm 0,0 UV-I 0 W/m -13,4 C -12,2 C 3,2 km/h (1 Bft) 100,00 %
23.01.2016 04:35 -12,2 C 91 % 1031,7 hPa 0,0 l/m 3,3 km/h (1 Bft) S-SW 192 0 min 0,000 mm 0,0 UV-I 0 W/m -13,4 C -12,2 C 4,8 km/h (1 Bft) 98,28 %
23.01.2016 04:40 -12,2 C 91 % 1031,6 hPa 0,0 l/m 2,5 km/h (1 Bft) S-SW 192 0 min 0,000 mm 0,0 UV-I 0 W/m -13,4 C -12,2 C 4,8 km/h (1 Bft) 99,11 %
23.01.2016 04:45 -12,2 C 91 % 1031,6 hPa 0,0 l/m 3,0 km/h (1 Bft) S 169 0 min 0,000 mm 0,0 UV-I 0 W/m -13,4 C -12,2 C 6,4 km/h (2 Bft) 100,00 %
23.01.2016 04:50 -12,0 C 91 % 1031,7 hPa 0,0 l/m 4,3 km/h (1 Bft) S 182 0 min 0,000 mm 0,0 UV-I 0 W/m -13,2 C -12,0 C 6,4 km/h (2 Bft) 100,00 %
23.01.2016 04:55 -11,9 C 91 % 1031,7 hPa 0,0 l/m 3,7 km/h (1 Bft) S 178 0 min 0,000 mm 0,0 UV-I 0 W/m -13,1 C -11,9 C 4,8 km/h (1 Bft) 99,07 %
23.01.2016 05:00 -11,8 C 91 % 1031,6 hPa 0,0 l/m 2,8 km/h (1 Bft) S 180 0 min 0,000 mm 0,0 UV-I 0 W/m -13,0 C -11,8 C 4,8 km/h (1 Bft) 98,31 %
23.01.2016 05:05 -11,8 C 91 % 1031,7 hPa 0,0 l/m 1,7 km/h (1 Bft) S-SW 195 0 min 0,000 mm 0,0 UV-I 0 W/m -13,0 C -11,8 C 3,2 km/h (1 Bft) 97,46 %
23.01.2016 05:10 -11,7 C 91 % 1031,7 hPa 0,0 l/m 1,7 km/h (1 Bft) S-SW 195 0 min 0,000 mm 0,0 UV-I 0 W/m -12,9 C -11,7 C 4,8 km/h (1 Bft) 96,75 %
23.01.2016 05:15 -11,7 C 91 % 1031,8 hPa 0,0 l/m 1,8 km/h (1 Bft) S-SW 195 0 min 0,000 mm 0,0 UV-I 0 W/m -12,9 C -11,7 C 3,2 km/h (1 Bft) 96,43 %
23.01.2016 05:20 -11,6 C 92 % 1031,8 hPa 0,0 l/m 4,0 km/h (1 Bft) S-SW 194 0 min 0,000 mm 0,0 UV-I 0 W/m -12,6 C -11,6 C 6,4 km/h (2 Bft) 96,75 %
23.01.2016 05:25 -11,4 C 92 % 1031,9 hPa 0,0 l/m 5,1 km/h (1 Bft) S 186 0 min 0,000 mm 0,0 UV-I 0 W/m -12,4 C -11,4 C 6,4 km/h (2 Bft) 97,25 %
23.01.2016 05:30 -11,3 C 91 % 1032,0 hPa 0,0 l/m 5,1 km/h (1 Bft) S-SW 210 0 min 0,000 mm 0,0 UV-I 0 W/m -12,5 C -11,3 C 8,0 km/h (2 Bft) 96,85 %
23.01.2016 05:35 -11,3 C 91 % 1032,0 hPa 0,0 l/m 3,5 km/h (1 Bft) S-SW 196 0 min 0,000 mm 0,0 UV-I 0 W/m -12,5 C -11,3 C 6,4 km/h (2 Bft) 98,29 %
23.01.2016 05:40 -11,2 C 91 % 1032,0 hPa 0,0 l/m 4,2 km/h (1 Bft) S 190 0 min 0,000 mm 0,0 UV-I 0 W/m -12,4 C -11,2 C 6,4 km/h (2 Bft) 99,08 %
23.01.2016 05:45 -11,1 C 92 % 1032,0 hPa 0,0 l/m 2,0 km/h (1 Bft) S-SW 200 0 min 0,000 mm 0,0 UV-I 0 W/m -12,1 C -11,1 C 4,8 km/h (1 Bft) 98,31 %
23.01.2016 05:50 -10,9 C 92 % 1032,0 hPa 0,0 l/m 2,0 km/h (1 Bft) S 190 0 min 0,000 mm 0,0 UV-I 0 W/m -11,9 C -10,9 C 4,8 km/h (1 Bft) 100,00 %
23.01.2016 05:55 -10,8 C 92 % 1032,0 hPa 0,0 l/m 2,2 km/h (1 Bft) S 191 0 min 0,000 mm 0,0 UV-I 0 W/m -11,8 C -10,8 C 4,8 km/h (1 Bft) 100,00 %
23.01.2016 06:00 -10,7 C 92 % 1032,1 hPa 0,0 l/m 0,8 km/h (0 Bft) S 191 0 min 0,000 mm 0,0 UV-I 0 W/m -11,7 C -10,7 C 3,2 km/h (1 Bft) 99,15 %
23.01.2016 06:05 -10,6 C 92 % 1032,2 hPa 0,0 l/m 2,5 km/h (1 Bft) S 191 0 min 0,000 mm 0,0 UV-I 0 W/m -11,6 C -10,6 C 4,8 km/h (1 Bft) 99,19 %
23.01.2016 06:10 -10,5 C 92 % 1032,1 hPa 0,0 l/m 3,7 km/h (1 Bft) S 175 0 min 0,000 mm 0,0 UV-I 0 W/m -11,5 C -10,5 C 6,4 km/h (2 Bft) 99,13 %
23.01.2016 06:15 -10,4 C 92 % 1032,1 hPa 0,0 l/m 2,2 km/h (1 Bft) S 175 0 min 0,000 mm 0,0 UV-I 0 W/m -11,4 C -10,4 C 3,2 km/h (1 Bft) 100,00 %
23.01.2016 06:20 -10,3 C 92 % 1032,1 hPa 0,0 l/m 1,7 km/h (1 Bft) S 175 0 min 0,000 mm 0,0 UV-I 0 W/m -11,3 C -10,3 C 3,2 km/h (1 Bft) 100,00 %
23.01.2016 06:25 -10,3 C 92 % 1032,0 hPa 0,0 l/m 1,8 km/h (1 Bft) S 175 0 min 0,000 mm 0,0 UV-I 0 W/m -11,3 C -10,3 C 4,8 km/h (1 Bft) 99,19 %
23.01.2016 06:30 -10,2 C 92 % 1032,0 hPa 0,0 l/m 0,8 km/h (0 Bft) S 175 0 min 0,000 mm 0,0 UV-I 0 W/m -11,2 C -10,2 C 3,2 km/h (1 Bft) 99,15 %
23.01.2016 06:35 -10,2 C 92 % 1032,0 hPa 0,0 l/m 0,7 km/h (0 Bft) S 175 0 min 0,000 mm 0,0 UV-I 0 W/m -11,2 C -10,2 C 3,2 km/h (1 Bft) 100,00 %
23.01.2016 06:40 -10,1 C 92 % 1032,0 hPa 0,0 l/m 1,2 km/h (1 Bft) S 175 0 min 0,000 mm 0,0 UV-I 0 W/m -11,1 C -10,1 C 3,2 km/h (1 Bft) 99,15 %
23.01.2016 06:45 -10,1 C 92 % 1032,0 hPa 0,0 l/m 1,5 km/h (1 Bft) S 175 0 min 0,000 mm 0,0 UV-I 0 W/m -11,1 C -10,1 C 3,2 km/h (1 Bft) 98,35 %
23.01.2016 06:50 -10,0 C 92 % 1032,1 hPa 0,0 l/m 2,0 km/h (1 Bft) S 176 0 min 0,000 mm 0,0 UV-I 0 W/m -11,0 C -10,0 C 3,2 km/h (1 Bft) 100,00 %
23.01.2016 06:55 -9,9 C 92 % 1032,1 hPa 0,0 l/m 2,3 km/h (1 Bft) S 176 0 min 0,000 mm 0,0 UV-I 0 W/m -10,9 C -9,9 C 4,8 km/h (1 Bft) 98,33 %
23.01.2016 07:00 -9,9 C 92 % 1032,1 hPa 0,0 l/m 1,6 km/h (1 Bft) S 177 0 min 0,000 mm 0,0 UV-I 0 W/m -10,9 C -9,9 C 4,8 km/h (1 Bft) 99,08 %
23.01.2016 07:05 -9,9 C 92 % 1032,1 hPa 0,0 l/m 1,1 km/h (1 Bft) S 177 0 min 0,000 mm 0,0 UV-I 0 W/m -10,9 C -9,9 C 3,2 km/h (1 Bft) 96,52 %
23.01.2016 07:10 -9,8 C 92 % 1032,3 hPa 0,0 l/m 0,8 km/h (0 Bft) S 177 0 min 0,000 mm 0,0 UV-I 0 W/m -10,8 C -9,8 C 3,2 km/h (1 Bft) 97,62 %
23.01.2016 07:15 -9,7 C 92 % 1032,2 hPa 0,0 l/m 3,1 km/h (1 Bft) SW 226 0 min 0,000 mm 0,0 UV-I 0 W/m -10,7 C -9,7 C 4,8 km/h (1 Bft) 97,25 %
23.01.2016 07:20 -9,7 C 92 % 1032,2 hPa 0,0 l/m 1,5 km/h (1 Bft) W-SW 243 0 min 0,000 mm 0,0 UV-I 0 W/m -10,7 C -9,7 C 3,2 km/h (1 Bft) 96,61 %
23.01.2016 07:25 -9,6 C 92 % 1031,9 hPa 0,0 l/m 0,9 km/h (0 Bft) S-SO 147 0 min 0,000 mm 0,0 UV-I 0 W/m -10,6 C -9,6 C 3,2 km/h (1 Bft) 96,83 %
23.01.2016 07:30 -9,6 C 92 % 1032,4 hPa 0,0 l/m 0,7 km/h (0 Bft) SO 146 0 min 0,000 mm 0,0 UV-I 0 W/m -10,6 C -9,6 C 3,2 km/h (1 Bft) 98,17 %
23.01.2016 07:35 -9,4 C 93 % 1032,3 hPa 0,0 l/m 0,5 km/h (0 Bft) S-SO 161 0 min 0,000 mm 0,0 UV-I 0 W/m -10,3 C -9,4 C 3,2 km/h (1 Bft) 99,19 %
23.01.2016 07:40 -9,3 C 93 % 1031,8 hPa 0,0 l/m 4,9 km/h (1 Bft) O-NO 75 0 min 0,000 mm 0,0 UV-I 0 W/m -10,2 C -9,3 C 11,3 km/h (2 Bft) 98,21 %
23.01.2016 07:45 -9,2 C 93 % 1032,5 hPa 0,0 l/m 2,7 km/h (1 Bft) W 281 0 min 0,000 mm 0,0 UV-I 0 W/m -10,1 C -9,2 C 8,0 km/h (2 Bft) 98,31 %
23.01.2016 07:50 -9,1 C 93 % 1032,6 hPa 0,0 l/m 1,4 km/h (1 Bft) W 279 0 min 0,000 mm 0,0 UV-I 0 W/m -10,0 C -9,1 C 4,8 km/h (1 Bft) 100,00 %
23.01.2016 07:55 -9,1 C 92 % 1032,4 hPa 0,0 l/m 1,9 km/h (1 Bft) NO 36 0 min 0,000 mm 0,0 UV-I 0 W/m -10,2 C -9,1 C 6,4 km/h (2 Bft) 99,11 %
23.01.2016 08:00 -9,0 C 93 % 1032,5 hPa 0,0 l/m 3,5 km/h (1 Bft) N-NO 23 0 min 0,000 mm 0,0 UV-I 3 W/m -9,9 C -9,0 C 8,0 km/h (2 Bft) 98,29 %
23.01.2016 08:05 -8,9 C 93 % 1032,7 hPa 0,0 l/m 1,0 km/h (0 Bft) N 10 0 min 0,000 mm 0,0 UV-I 6 W/m -9,8 C -8,9 C 4,8 km/h (1 Bft) 100,00 %
23.01.2016 08:10 -8,9 C 93 % 1032,7 hPa 0,0 l/m 0,1 km/h (0 Bft) N 10 0 min 0,000 mm 0,0 UV-I 7 W/m -9,8 C -8,9 C 1,6 km/h (1 Bft) 99,11 %
23.01.2016 08:15 -8,9 C 92 % 1033,0 hPa 0,0 l/m 0,5 km/h (0 Bft) N-NW 342 0 min 0,000 mm 0,0 UV-I 6 W/m -10,0 C -8,9 C 3,2 km/h (1 Bft) 95,83 %
23.01.2016 08:20 -8,9 C 92 % 1033,2 hPa 0,0 l/m 1,9 km/h (1 Bft) W-NW 286 0 min 0,000 mm 0,0 UV-I 5 W/m -10,0 C -8,9 C 4,8 km/h (1 Bft) 100,00 %
23.01.2016 08:25 -8,8 C 93 % 1033,1 hPa 0,0 l/m 0,1 km/h (0 Bft) W-NW 286 0 min 0,000 mm 0,0 UV-I 7 W/m -9,7 C -8,8 C 1,6 km/h (1 Bft) 98,11 %
23.01.2016 08:30 -8,8 C 92 % 1033,1 hPa 0,0 l/m 0,0 km/h (0 Bft) W-NW 286 0 min 0,000 mm 0,0 UV-I 8 W/m -9,9 C -8,8 C 0,0 km/h (0 Bft) 99,19 %
23.01.2016 08:35 -8,8 C 92 % 1032,9 hPa 0,0 l/m 0,1 km/h (0 Bft) W-NW 286 0 min 0,000 mm 0,0 UV-I 10 W/m -9,9 C -8,8 C 1,6 km/h (1 Bft) 100,00 %
23.01.2016 08:40 -8,7 C 93 % 1033,0 hPa 0,0 l/m 0,0 km/h (0 Bft) W-NW 286 0 min 0,000 mm 0,0 UV-I 12 W/m -9,6 C -8,7 C 0,0 km/h (0 Bft) 99,15 %
23.01.2016 08:45 -8,6 C 93 % 1032,8 hPa 0,0 l/m 0,2 km/h (0 Bft) W-NW 286 0 min 0,000 mm 0,0 UV-I 17 W/m -9,5 C -8,6 C 1,6 km/h (1 Bft) 100,00 %
23.01.2016 08:50 -8,6 C 93 % 1032,8 hPa 0,0 l/m 0,9 km/h (0 Bft) O-SO 119 0 min 0,000 mm 0,0 UV-I 16 W/m -9,5 C -8,6 C 3,2 km/h (1 Bft) 100,00 %
23.01.2016 08:55 -8,6 C 93 % 1032,8 hPa 0,0 l/m 0,2 km/h (0 Bft) O-SO 119 0 min 0,000 mm 0,0 UV-I 13 W/m -9,5 C -8,6 C 1,6 km/h (1 Bft) 100,00 %
23.01.2016 09:00 -8,5 C 93 % 1032,7 hPa 0,0 l/m 1,3 km/h (1 Bft) S-SO 155 0 min 0,000 mm 0,0 UV-I 11 W/m -9,4 C -8,5 C 3,2 km/h (1 Bft) 100,00 %
23.01.2016 09:05 -8,3 C 93 % 1032,9 hPa 0,0 l/m 0,4 km/h (0 Bft) S-SO 155 0 min 0,000 mm 0,0 UV-I 11 W/m -9,2 C -8,3 C 3,2 km/h (1 Bft) 96,52 %
23.01.2016 09:10 -8,2 C 93 % 1032,9 hPa 0,0 l/m 0,7 km/h (0 Bft) SO 136 0 min 0,000 mm 0,0 UV-I 12 W/m -9,1 C -8,2 C 3,2 km/h (1 Bft) 97,56 %
23.01.2016 09:15 -8,2 C 93 % 1032,8 hPa 0,0 l/m 0,5 km/h (0 Bft) SO 136 0 min 0,000 mm 0,0 UV-I 13 W/m -9,1 C -8,2 C 3,2 km/h (1 Bft) 94,64 %
23.01.2016 09:20 -8,2 C 93 % 1033,0 hPa 0,0 l/m 0,8 km/h (0 Bft) W 281 0 min 0,000 mm 0,0 UV-I 14 W/m -9,1 C -8,2 C 3,2 km/h (1 Bft) 96,75 %
23.01.2016 09:25 -8,1 C 93 % 1033,2 hPa 0,0 l/m 0,8 km/h (0 Bft) W 281 0 min 0,000 mm 0,0 UV-I 16 W/m -9,0 C -8,1 C 3,2 km/h (1 Bft) 97,46 %
23.01.2016 09:30 -8,0 C 93 % 1033,2 hPa 0,0 l/m 0,3 km/h (0 Bft) W 281 0 min 0,000 mm 0,0 UV-I 17 W/m -8,9 C -8,0 C 1,6 km/h (1 Bft) 96,52 %
23.01.2016 09:35 -7,9 C 93 % 1033,3 hPa 0,0 l/m 1,3 km/h (1 Bft) W 281 0 min 0,000 mm 0,0 UV-I 17 W/m -8,8 C -7,9 C 3,2 km/h (1 Bft) 96,58 %
23.01.2016 09:40 -7,9 C 93 % 1033,3 hPa 0,0 l/m 1,4 km/h (1 Bft) W 281 0 min 0,000 mm 0,0 UV-I 15 W/m -8,8 C -7,9 C 3,2 km/h (1 Bft) 99,13 %
23.01.2016 09:45 -7,9 C 93 % 1033,3 hPa 0,0 l/m 1,4 km/h (1 Bft) W 281 0 min 0,000 mm 0,0 UV-I 14 W/m -8,8 C -7,9 C 3,2 km/h (1 Bft) 99,13 %
23.01.2016 09:50 -7,8 C 93 % 1033,3 hPa 0,0 l/m 1,9 km/h (1 Bft) W 281 0 min 0,000 mm 0,0 UV-I 16 W/m -8,7 C -7,8 C 3,2 km/h (1 Bft) 99,12 %
23.01.2016 09:55 -7,7 C 93 % 1033,3 hPa 0,0 l/m 2,2 km/h (1 Bft) W 281 0 min 0,000 mm 0,0 UV-I 19 W/m -8,6 C -7,7 C 3,2 km/h (1 Bft) 97,69 %
23.01.2016 10:00 -7,7 C 93 % 1033,4 hPa 0,0 l/m 2,2 km/h (1 Bft) W 281 0 min 0,000 mm 0,0 UV-I 21 W/m -8,6 C -7,7 C 3,2 km/h (1 Bft) 100,00 %
23.01.2016 10:05 -7,6 C 93 % 1033,4 hPa 0,0 l/m 2,0 km/h (1 Bft) W 281 0 min 0,000 mm 0,0 UV-I 22 W/m -8,5 C -7,6 C 3,2 km/h (1 Bft) 100,00 %
23.01.2016 10:10 -7,6 C 93 % 1033,4 hPa 0,0 l/m 2,0 km/h (1 Bft) W 281 0 min 0,000 mm 0,0 UV-I 23 W/m -8,5 C -7,6 C 3,2 km/h (1 Bft) 100,00 %
23.01.2016 10:15 -7,4 C 93 % 1033,4 hPa 0,0 l/m 2,7 km/h (1 Bft) W 265 0 min 0,000 mm 0,0 UV-I 22 W/m -8,3 C -7,4 C 4,8 km/h (1 Bft) 100,00 %
23.01.2016 10:20 -7,4 C 93 % 1033,4 hPa 0,0 l/m 2,1 km/h (1 Bft) W 270 0 min 0,000 mm 0,0 UV-I 23 W/m -8,3 C -7,4 C 4,8 km/h (1 Bft) 97,32 %
23.01.2016 10:25 -7,3 C 93 % 1033,5 hPa 0,0 l/m 1,2 km/h (1 Bft) NW 318 0 min 0,000 mm 0,0 UV-I 22 W/m -8,2 C -7,3 C 4,8 km/h (1 Bft) 100,00 %
23.01.2016 10:30 -7,2 C 93 % 1033,7 hPa 0,0 l/m 1,1 km/h (1 Bft) W-NW 297 0 min 0,000 mm 0,0 UV-I 25 W/m -8,1 C -7,2 C 4,8 km/h (1 Bft) 98,45 %
23.01.2016 10:35 -7,1 C 93 % 1033,6 hPa 0,0 l/m 1,7 km/h (1 Bft) W-NW 289 0 min 0,000 mm 0,0 UV-I 26 W/m -8,0 C -7,1 C 4,8 km/h (1 Bft) 99,13 %
23.01.2016 10:40 -7,1 C 93 % 1033,7 hPa 0,0 l/m 1,8 km/h (1 Bft) W-NW 289 0 min 0,000 mm 0,0 UV-I 30 W/m -8,0 C -7,1 C 3,2 km/h (1 Bft) 99,12 %
23.01.2016 10:45 -6,9 C 94 % 1033,6 hPa 0,0 l/m 2,0 km/h (1 Bft) W-NW 288 0 min 0,000 mm 0,0 UV-I 37 W/m -7,7 C -6,9 C 4,8 km/h (1 Bft) 100,00 %
23.01.2016 10:50 -6,8 C 94 % 1033,6 hPa 0,0 l/m 2,2 km/h (1 Bft) W-NW 298 0 min 0,000 mm 0,0 UV-I 44 W/m -7,6 C -6,8 C 4,8 km/h (1 Bft) 100,00 %
23.01.2016 10:55 -6,7 C 94 % 1033,6 hPa 0,0 l/m 1,1 km/h (1 Bft) W-NW 298 0 min 0,000 mm 0,0 UV-I 41 W/m -7,5 C -6,7 C 3,2 km/h (1 Bft) 100,00 %
23.01.2016 11:00 -6,6 C 94 % 1033,5 hPa 0,0 l/m 2,8 km/h (1 Bft) W 280 0 min 0,000 mm 0,0 UV-I 48 W/m -7,4 C -6,6 C 4,8 km/h (1 Bft) 100,00 %
23.01.2016 11:05 -6,5 C 94 % 1033,6 hPa 0,0 l/m 1,6 km/h (1 Bft) W-NW 283 0 min 0,000 mm 0,0 UV-I 39 W/m -7,3 C -6,5 C 4,8 km/h (1 Bft) 99,11 %
23.01.2016 11:10 -6,4 C 94 % 1033,5 hPa 0,0 l/m 1,5 km/h (1 Bft) W 274 0 min 0,000 mm 0,0 UV-I 35 W/m -7,2 C -6,4 C 4,8 km/h (1 Bft) 97,56 %
23.01.2016 11:15 -6,4 C 94 % 1033,6 hPa 0,0 l/m 1,7 km/h (1 Bft) W-NW 300 0 min 0,000 mm 0,0 UV-I 37 W/m -7,2 C -6,4 C 4,8 km/h (1 Bft) 96,52 %
23.01.2016 11:20 -6,6 C 94 % 1033,7 hPa 0,0 l/m 2,6 km/h (1 Bft) NW 306 0 min 0,000 mm 0,0 UV-I 37 W/m -7,4 C -6,6 C 6,4 km/h (2 Bft) 97,37 %
23.01.2016 11:25 -6,6 C 93 % 1033,8 hPa 0,0 l/m 3,0 km/h (1 Bft) W-NW 300 0 min 0,000 mm 0,0 UV-I 36 W/m -7,5 C -6,6 C 12,9 km/h (3 Bft) 96,85 %
23.01.2016 11:30 -6,4 C 94 % 1033,7 hPa 0,0 l/m 1,3 km/h (1 Bft) W-NW 285 0 min 0,000 mm 0,0 UV-I 37 W/m -7,2 C -6,4 C 4,8 km/h (1 Bft) 97,17 %
23.01.2016 11:35 -6,3 C 94 % 1033,7 hPa 0,0 l/m 1,2 km/h (1 Bft) NW 305 0 min 0,000 mm 0,0 UV-I 34 W/m -7,1 C -6,3 C 4,8 km/h (1 Bft) 95,73 %
23.01.2016 11:40 -6,3 C 94 % 1033,9 hPa 0,0 l/m 1,5 km/h (1 Bft) NW 313 0 min 0,000 mm 0,0 UV-I 35 W/m -7,1 C -6,3 C 4,8 km/h (1 Bft) 98,31 %
23.01.2016 11:45 -6,3 C 93 % 1033,8 hPa 0,0 l/m 1,1 km/h (1 Bft) W-NW 301 0 min 0,000 mm 0,0 UV-I 32 W/m -7,2 C -6,3 C 6,4 km/h (2 Bft) 98,39 %
23.01.2016 11:50 -6,3 C 93 % 1034,0 hPa 0,0 l/m 2,9 km/h (1 Bft) W 270 0 min 0,000 mm 0,0 UV-I 30 W/m -7,2 C -6,3 C 6,4 km/h (2 Bft) 98,29 %
23.01.2016 11:55 -6,3 C 93 % 1033,9 hPa 0,0 l/m 3,2 km/h (1 Bft) W 275 0 min 0,000 mm 0,0 UV-I 33 W/m -7,2 C -6,3 C 4,8 km/h (1 Bft) 100,00 %
23.01.2016 12:00 -6,2 C 93 % 1034,0 hPa 0,0 l/m 3,1 km/h (1 Bft) W 271 0 min 0,000 mm 0,0 UV-I 32 W/m -7,1 C -6,2 C 6,4 km/h (2 Bft) 100,00 %
23.01.2016 12:05 -6,1 C 93 % 1033,9 hPa 0,0 l/m 4,4 km/h (1 Bft) W 270 0 min 0,000 mm 0,0 UV-I 35 W/m -7,0 C -6,1 C 8,0 km/h (2 Bft) 99,15 %
23.01.2016 12:10 -5,8 C 93 % 1033,9 hPa 0,0 l/m 5,4 km/h (1 Bft) SW 234 0 min 0,000 mm 0,0 UV-I 40 W/m -6,7 C -5,8 C 8,0 km/h (2 Bft) 98,26 %
23.01.2016 12:15 -5,6 C 93 % 1033,8 hPa 0,0 l/m 5,7 km/h (1 Bft) W 264 0 min 0,000 mm 0,0 UV-I 39 W/m -6,5 C -5,6 C 9,7 km/h (2 Bft) 99,12 %
23.01.2016 12:20 -5,3 C 94 % 1033,8 hPa 0,0 l/m 8,9 km/h (2 Bft) W-SW 251 0 min 0,000 mm 0,0 UV-I 41 W/m -6,1 C -8,2 C 14,5 km/h (3 Bft) 100,00 %
23.01.2016 12:25 -5,1 C 94 % 1033,8 hPa 0,0 l/m 10,7 km/h (2 Bft) W-SW 253 0 min 0,000 mm 0,0 UV-I 42 W/m -5,9 C -9,7 C 14,5 km/h (3 Bft) 99,17 %
23.01.2016 12:30 -4,9 C 93 % 1033,9 hPa 0,0 l/m 9,8 km/h (2 Bft) W-NW 284 0 min 0,000 mm 0,0 UV-I 34 W/m -5,9 C -8,7 C 16,1 km/h (3 Bft) 99,08 %
23.01.2016 12:35 -4,8 C 93 % 1034,0 hPa 0,0 l/m 7,3 km/h (2 Bft) W 277 0 min 0,000 mm 0,0 UV-I 28 W/m -5,8 C -5,9 C 11,3 km/h (2 Bft) 98,31 %
23.01.2016 12:40 -4,8 C 93 % 1033,9 hPa 0,0 l/m 5,4 km/h (1 Bft) W 274 0 min 0,000 mm 0,0 UV-I 25 W/m -5,8 C -4,8 C 11,3 km/h (2 Bft) 100,00 %
23.01.2016 12:45 -4,6 C 94 % 1033,8 hPa 0,0 l/m 5,9 km/h (2 Bft) W 263 0 min 0,000 mm 0,0 UV-I 25 W/m -5,4 C -4,6 C 12,9 km/h (3 Bft) 99,13 %
23.01.2016 12:50 -4,3 C 94 % 1033,8 hPa 0,0 l/m 7,9 km/h (2 Bft) W 264 0 min 0,000 mm 0,0 UV-I 26 W/m -5,1 C -6,0 C 16,1 km/h (3 Bft) 99,19 %
23.01.2016 12:55 -4,1 C 94 % 1033,8 hPa 0,0 l/m 6,5 km/h (2 Bft) W 273 0 min 0,000 mm 0,0 UV-I 26 W/m -4,9 C -4,2 C 14,5 km/h (3 Bft) 99,12 %
23.01.2016 13:00 -3,8 C 94 % 1033,9 hPa 0,0 l/m 6,3 km/h (2 Bft) W 263 0 min 0,000 mm 0,0 UV-I 28 W/m -4,6 C -3,8 C 11,3 km/h (2 Bft) 100,00 %
23.01.2016 13:05 -3,6 C 95 % 1033,8 hPa 0,0 l/m 8,8 km/h (2 Bft) W-SW 254 0 min 0,000 mm 0,0 UV-I 33 W/m -4,3 C -6,3 C 16,1 km/h (3 Bft) 95,61 %
23.01.2016 13:10 -3,3 C 95 % 1033,8 hPa 0,0 l/m 7,0 km/h (2 Bft) W-SW 257 0 min 0,000 mm 0,0 UV-I 42 W/m -4,0 C -4,0 C 12,9 km/h (3 Bft) 97,32 %
23.01.2016 13:15 -3,1 C 95 % 1033,7 hPa 0,0 l/m 7,3 km/h (2 Bft) W-NW 298 0 min 0,000 mm 0,0 UV-I 40 W/m -3,8 C -4,1 C 17,7 km/h (3 Bft) 98,26 %
23.01.2016 13:20 -2,8 C 95 % 1033,9 hPa 0,0 l/m 6,9 km/h (2 Bft) W-SW 257 0 min 0,000 mm 0,0 UV-I 36 W/m -3,5 C -3,4 C 14,5 km/h (3 Bft) 96,67 %
23.01.2016 13:25 -2,6 C 95 % 1033,9 hPa 0,0 l/m 10,4 km/h (2 Bft) W-NW 288 0 min 0,000 mm 0,0 UV-I 34 W/m -3,3 C -6,7 C 14,5 km/h (3 Bft) 96,61 %
23.01.2016 13:30 -2,4 C 95 % 1033,9 hPa 0,0 l/m 10,2 km/h (2 Bft) W 279 0 min 0,000 mm 0,0 UV-I 38 W/m -3,1 C -6,3 C 19,3 km/h (3 Bft) 96,61 %
23.01.2016 13:35 -2,3 C 95 % 1033,9 hPa 0,0 l/m 7,8 km/h (2 Bft) W-SW 248 0 min 0,000 mm 0,0 UV-I 33 W/m -3,0 C -3,8 C 19,3 km/h (3 Bft) 97,44 %
23.01.2016 13:40 -2,3 C 95 % 1034,0 hPa 0,0 l/m 8,9 km/h (2 Bft) W 265 0 min 0,000 mm 0,0 UV-I 32 W/m -3,0 C -5,0 C 14,5 km/h (3 Bft) 100,00 %
23.01.2016 13:45 -2,1 C 95 % 1034,0 hPa 0,0 l/m 9,3 km/h (2 Bft) W-NW 290 0 min 0,000 mm 0,0 UV-I 30 W/m -2,8 C -5,1 C 19,3 km/h (3 Bft) 97,39 %
23.01.2016 13:50 -1,9 C 96 % 1034,0 hPa 0,0 l/m 10,1 km/h (2 Bft) W-SW 257 0 min 0,000 mm 0,0 UV-I 30 W/m -2,5 C -5,6 C 19,3 km/h (3 Bft) 100,00 %
23.01.2016 13:55 -1,7 C 96 % 1034,0 hPa 0,0 l/m 11,2 km/h (2 Bft) NW 311 0 min 0,000 mm 0,0 UV-I 29 W/m -2,3 C -6,3 C 17,7 km/h (3 Bft) 100,00 %
23.01.2016 14:00 -1,6 C 96 % 1034,0 hPa 0,0 l/m 11,0 km/h (2 Bft) W-SW 246 0 min 0,025 mm 0,0 UV-I 30 W/m -2,2 C -6,1 C 20,9 km/h (4 Bft) 100,00 %
23.01.2016 14:05 -1,4 C 95 % 1034,1 hPa 0,0 l/m 10,0 km/h (2 Bft) W-SW 249 0 min 0,000 mm 0,0 UV-I 31 W/m -2,1 C -5,0 C 16,1 km/h (3 Bft) 100,00 %
23.01.2016 14:10 -1,4 C 95 % 1034,1 hPa 0,0 l/m 9,2 km/h (2 Bft) W-NW 292 0 min 0,000 mm 0,0 UV-I 34 W/m -2,1 C -4,3 C 14,5 km/h (3 Bft) 100,00 %
23.01.2016 14:15 -1,3 C 95 % 1034,1 hPa 0,0 l/m 9,7 km/h (2 Bft) W 278 0 min 0,000 mm 0,0 UV-I 34 W/m -2,0 C -4,6 C 16,1 km/h (3 Bft) 99,12 %
23.01.2016 14:20 -1,2 C 95 % 1034,1 hPa 0,0 l/m 10,5 km/h (2 Bft) W-SW 241 0 min 0,000 mm 0,0 UV-I 34 W/m -1,9 C -5,2 C 16,1 km/h (3 Bft) 99,17 %
23.01.2016 14:25 -1,1 C 95 % 1034,1 hPa 0,0 l/m 11,7 km/h (2 Bft) SW 222 0 min 0,000 mm 0,0 UV-I 36 W/m -1,8 C -6,0 C 17,7 km/h (3 Bft) 100,00 %
23.01.2016 14:30 -0,9 C 95 % 1034,2 hPa 0,0 l/m 9,8 km/h (2 Bft) W 270 0 min 0,000 mm 0,0 UV-I 36 W/m -1,6 C -4,3 C 17,7 km/h (3 Bft) 99,11 %
23.01.2016 14:35 -0,7 C 95 % 1034,3 hPa 0,0 l/m 8,5 km/h (2 Bft) W-SW 251 0 min 0,000 mm 0,0 UV-I 30 W/m -1,4 C -2,9 C 14,5 km/h (3 Bft) 97,39 %
23.01.2016 14:40 -0,6 C 96 % 1034,4 hPa 0,0 l/m 10,0 km/h (2 Bft) W-NW 294 0 min 0,000 mm 0,0 UV-I 31 W/m -1,2 C -4,1 C 20,9 km/h (4 Bft) 100,00 %
23.01.2016 14:45 -0,5 C 95 % 1034,4 hPa 0,0 l/m 10,2 km/h (2 Bft) W 265 0 min 0,000 mm 0,0 UV-I 30 W/m -1,2 C -4,2 C 17,7 km/h (3 Bft) 99,17 %
23.01.2016 14:50 -0,3 C 96 % 1034,4 hPa 0,0 l/m 9,9 km/h (2 Bft) W 274 0 min 0,000 mm 0,0 UV-I 33 W/m -0,9 C -3,7 C 16,1 km/h (3 Bft) 98,31 %
23.01.2016 14:55 -0,3 C 96 % 1034,5 hPa 0,0 l/m 8,9 km/h (2 Bft) W 265 0 min 0,000 mm 0,0 UV-I 30 W/m -0,9 C -2,8 C 17,7 km/h (3 Bft) 99,15 %
23.01.2016 15:00 -0,3 C 95 % 1034,5 hPa 0,0 l/m 4,9 km/h (1 Bft) W-NW 286 0 min 0,026 mm 0,0 UV-I 27 W/m -1,0 C -0,3 C 11,3 km/h (2 Bft) 100,00 %
23.01.2016 15:05 -0,3 C 95 % 1034,6 hPa 0,0 l/m 4,5 km/h (1 Bft) N-NW 331 0 min 0,000 mm 0,0 UV-I 26 W/m -1,0 C -0,3 C 11,3 km/h (2 Bft) 95,93 %
23.01.2016 15:10 -0,4 C 95 % 1034,5 hPa 0,0 l/m 4,4 km/h (1 Bft) W-SW 258 0 min 0,000 mm 0,0 UV-I 26 W/m -1,1 C -0,4 C 9,7 km/h (2 Bft) 96,61 %
23.01.2016 15:15 -0,4 C 95 % 1034,5 hPa 0,0 l/m 8,7 km/h (2 Bft) W 263 0 min 0,000 mm 0,0 UV-I 29 W/m -1,1 C -2,7 C 17,7 km/h (3 Bft) 97,32 %
23.01.2016 15:20 -0,4 C 95 % 1034,6 hPa 0,0 l/m 11,4 km/h (2 Bft) W 275 0 min 0,000 mm 0,0 UV-I 29 W/m -1,1 C -5,0 C 19,3 km/h (3 Bft) 98,29 %
23.01.2016 15:25 -0,3 C 95 % 1034,6 hPa 0,0 l/m 11,0 km/h (2 Bft) W 273 0 min 0,000 mm 0,0 UV-I 26 W/m -1,0 C -4,6 C 17,7 km/h (3 Bft) 96,69 %
23.01.2016 15:30 -0,3 C 95 % 1034,8 hPa 0,0 l/m 9,4 km/h (2 Bft) W 275 0 min 0,000 mm 0,0 UV-I 22 W/m -1,0 C -3,3 C 16,1 km/h (3 Bft) 97,17 %
23.01.2016 15:35 -0,3 C 95 % 1034,8 hPa 0,0 l/m 7,7 km/h (2 Bft) W 267 0 min 0,000 mm 0,0 UV-I 18 W/m -1,0 C -1,7 C 16,1 km/h (3 Bft) 96,75 %
23.01.2016 15:40 -0,4 C 95 % 1034,8 hPa 0,0 l/m 9,0 km/h (2 Bft) W 277 0 min 0,000 mm 0,0 UV-I 16 W/m -1,1 C -3,0 C 19,3 km/h (3 Bft) 96,69 %
23.01.2016 15:45 -0,4 C 95 % 1034,6 hPa 0,0 l/m 10,5 km/h (2 Bft) W-SW 250 0 min 0,000 mm 0,0 UV-I 16 W/m -1,1 C -4,3 C 19,3 km/h (3 Bft) 100,00 %
23.01.2016 15:50 -0,4 C 95 % 1034,8 hPa 0,0 l/m 11,0 km/h (2 Bft) W 264 0 min 0,000 mm 0,0 UV-I 12 W/m -1,1 C -4,7 C 17,7 km/h (3 Bft) 98,37 %
23.01.2016 15:55 -0,5 C 95 % 1034,8 hPa 0,0 l/m 10,5 km/h (2 Bft) W-NW 286 0 min 0,000 mm 0,0 UV-I 8 W/m -1,2 C -4,4 C 16,1 km/h (3 Bft) 100,00 %
23.01.2016 16:00 -0,6 C 95 % 1034,8 hPa 0,0 l/m 9,8 km/h (2 Bft) W 277 0 min 0,000 mm 0,0 UV-I 7 W/m -1,3 C -3,9 C 19,3 km/h (3 Bft) 100,00 %
23.01.2016 16:05 -0,6 C 96 % 1034,8 hPa 0,0 l/m 10,3 km/h (2 Bft) W 271 0 min 0,000 mm 0,0 UV-I 5 W/m -1,2 C -4,4 C 22,5 km/h (4 Bft) 99,21 %
23.01.2016 16:10 -0,6 C 96 % 1034,8 hPa 0,0 l/m 8,0 km/h (2 Bft) W 269 0 min 0,000 mm 0,0 UV-I 6 W/m -1,2 C -2,3 C 14,5 km/h (3 Bft) 100,00 %
23.01.2016 16:15 -0,6 C 96 % 1034,7 hPa 0,0 l/m 10,2 km/h (2 Bft) W-SW 250 0 min 0,000 mm 0,0 UV-I 9 W/m -1,2 C -4,3 C 16,1 km/h (3 Bft) 100,00 %
23.01.2016 16:20 -0,5 C 96 % 1034,8 hPa 0,0 l/m 10,3 km/h (2 Bft) W 269 0 min 0,000 mm 0,0 UV-I 9 W/m -1,1 C -4,3 C 17,7 km/h (3 Bft) 98,31 %
23.01.2016 16:25 -0,4 C 96 % 1034,9 hPa 0,0 l/m 11,4 km/h (2 Bft) W 264 0 min 0,000 mm 0,0 UV-I 7 W/m -1,0 C -5,0 C 17,7 km/h (3 Bft) 100,00 %
23.01.2016 16:30 -0,3 C 96 % 1035,0 hPa 0,0 l/m 8,8 km/h (2 Bft) W 264 0 min 0,000 mm 0,0 UV-I 3 W/m -0,9 C -2,7 C 17,7 km/h (3 Bft) 99,17 %
23.01.2016 16:35 -0,3 C 96 % 1035,0 hPa 0,0 l/m 7,4 km/h (2 Bft) W-SW 250 0 min 0,000 mm 0,0 UV-I 0 W/m -0,9 C -1,4 C 12,9 km/h (3 Bft) 100,00 %
23.01.2016 16:40 -0,2 C 96 % 1035,2 hPa 0,0 l/m 6,4 km/h (2 Bft) W 266 0 min 0,000 mm 0,0 UV-I 0 W/m -0,8 C -0,2 C 14,5 km/h (3 Bft) 100,00 %
23.01.2016 16:45 -0,2 C 96 % 1035,3 hPa 0,0 l/m 4,8 km/h (1 Bft) W 273 0 min 0,000 mm 0,0 UV-I 0 W/m -0,8 C -0,2 C 11,3 km/h (2 Bft) 100,00 %
23.01.2016 16:50 -0,2 C 96 % 1035,4 hPa 0,0 l/m 4,4 km/h (1 Bft) W 269 0 min 0,000 mm 0,0 UV-I 0 W/m -0,8 C -0,2 C 9,7 km/h (2 Bft) 100,00 %
23.01.2016 16:55 -0,1 C 96 % 1035,3 hPa 0,0 l/m 4,6 km/h (1 Bft) W-SW 246 0 min 0,000 mm 0,0 UV-I 0 W/m -0,7 C -0,1 C 8,0 km/h (2 Bft) 99,17 %
23.01.2016 17:00 -0,1 C 97 % 1035,3 hPa 0,0 l/m 7,8 km/h (2 Bft) W 265 0 min 0,000 mm 0,0 UV-I 0 W/m -0,5 C -1,6 C 12,9 km/h (3 Bft) 99,17 %
23.01.2016 17:05 0,0 C 96 % 1035,5 hPa 0,0 l/m 6,7 km/h (2 Bft) W 272 0 min 0,000 mm 0,0 UV-I 0 W/m -0,6 C -0,3 C 11,3 km/h (2 Bft) 98,29 %
23.01.2016 17:10 0,0 C 96 % 1035,5 hPa 0,0 l/m 4,7 km/h (1 Bft) W 275 0 min 0,000 mm 0,0 UV-I 0 W/m -0,6 C 0,0 C 9,7 km/h (2 Bft) 98,21 %
23.01.2016 17:15 0,0 C 96 % 1035,6 hPa 0,0 l/m 4,1 km/h (1 Bft) W 276 0 min 0,000 mm 0,0 UV-I 0 W/m -0,6 C 0,0 C 6,4 km/h (2 Bft) 98,26 %
23.01.2016 17:20 0,1 C 96 % 1035,7 hPa 0,0 l/m 5,6 km/h (1 Bft) W 270 0 min 0,000 mm 0,0 UV-I 0 W/m -0,5 C 0,1 C 9,7 km/h (2 Bft) 95,93 %
23.01.2016 17:25 0,1 C 96 % 1035,8 hPa 0,0 l/m 5,8 km/h (2 Bft) W-SW 257 0 min 0,000 mm 0,0 UV-I 0 W/m -0,5 C 0,1 C 11,3 km/h (2 Bft) 97,25 %
23.01.2016 17:30 0,1 C 96 % 1035,9 hPa 0,0 l/m 6,3 km/h (2 Bft) W-SW 257 0 min 0,000 mm 0,0 UV-I 0 W/m -0,5 C 0,1 C 11,3 km/h (2 Bft) 95,97 %
23.01.2016 17:35 0,2 C 96 % 1036,0 hPa 0,0 l/m 7,7 km/h (2 Bft) W 281 0 min 0,000 mm 0,0 UV-I 0 W/m -0,4 C -1,1 C 11,3 km/h (2 Bft) 97,37 %
23.01.2016 17:40 0,2 C 96 % 1036,0 hPa 0,0 l/m 6,2 km/h (2 Bft) W-SW 245 0 min 0,000 mm 0,0 UV-I 0 W/m -0,4 C 0,2 C 12,9 km/h (3 Bft) 98,35 %
23.01.2016 17:45 0,3 C 96 % 1036,1 hPa 0,0 l/m 7,1 km/h (2 Bft) W 270 0 min 0,000 mm 0,0 UV-I 0 W/m -0,3 C -0,4 C 12,9 km/h (3 Bft) 96,67 %
23.01.2016 17:50 0,3 C 96 % 1036,2 hPa 0,0 l/m 7,5 km/h (2 Bft) W 264 0 min 0,000 mm 0,0 UV-I 0 W/m -0,3 C -0,8 C 11,3 km/h (2 Bft) 97,32 %
23.01.2016 17:55 0,4 C 96 % 1036,3 hPa 0,0 l/m 7,7 km/h (2 Bft) W-SW 237 0 min 0,000 mm 0,0 UV-I 0 W/m -0,2 C -0,9 C 12,9 km/h (3 Bft) 98,21 %
23.01.2016 18:00 0,3 C 96 % 1036,3 hPa 0,0 l/m 8,0 km/h (2 Bft) W-SW 256 0 min 0,000 mm 0,0 UV-I 0 W/m -0,3 C -1,3 C 12,9 km/h (3 Bft) 97,50 %
23.01.2016 18:05 0,4 C 96 % 1036,5 hPa 0,0 l/m 6,4 km/h (2 Bft) W 259 0 min 0,000 mm 0,0 UV-I 0 W/m -0,2 C 0,4 C 11,3 km/h (2 Bft) 99,17 %
23.01.2016 18:10 0,4 C 96 % 1036,5 hPa 0,0 l/m 6,6 km/h (2 Bft) W-SW 257 0 min 0,000 mm 0,0 UV-I 0 W/m -0,2 C 0,2 C 11,3 km/h (2 Bft) 100,00 %
23.01.2016 18:15 0,4 C 96 % 1036,6 hPa 0,0 l/m 8,3 km/h (2 Bft) W 267 0 min 0,000 mm 0,0 UV-I 0 W/m -0,2 C -1,5 C 12,9 km/h (3 Bft) 100,00 %
23.01.2016 18:20 0,5 C 96 % 1036,6 hPa 0,0 l/m 8,5 km/h (2 Bft) W-SW 255 0 min 0,000 mm 0,0 UV-I 0 W/m -0,1 C -1,6 C 12,9 km/h (3 Bft) 100,00 %
23.01.2016 18:25 0,6 C 97 % 1036,6 hPa 0,0 l/m 8,0 km/h (2 Bft) W-SW 250 0 min 0,000 mm 0,0 UV-I 0 W/m 0,2 C -1,0 C 14,5 km/h (3 Bft) 99,08 %
23.01.2016 18:30 0,6 C 97 % 1036,7 hPa 0,0 l/m 9,6 km/h (2 Bft) W 265 0 min 0,000 mm 0,0 UV-I 0 W/m 0,2 C -2,5 C 14,5 km/h (3 Bft) 99,12 %
23.01.2016 18:35 0,7 C 97 % 1036,6 hPa 0,0 l/m 11,8 km/h (2 Bft) W-SW 244 0 min 0,000 mm 0,0 UV-I 0 W/m 0,3 C -4,1 C 19,3 km/h (3 Bft) 100,00 %
23.01.2016 18:40 0,8 C 97 % 1036,7 hPa 0,0 l/m 10,7 km/h (2 Bft) W-SW 257 0 min 0,000 mm 0,0 UV-I 0 W/m 0,4 C -3,1 C 14,5 km/h (3 Bft) 99,15 %
23.01.2016 18:45 1,1 C 97 % 1036,7 hPa 0,0 l/m 12,2 km/h (2 Bft) SW 228 0 min 0,000 mm 0,0 UV-I 0 W/m 0,7 C -3,9 C 17,7 km/h (3 Bft) 99,08 %
23.01.2016 18:50 1,4 C 97 % 1036,8 hPa 0,0 l/m 13,9 km/h (3 Bft) W 259 0 min 0,000 mm 0,0 UV-I 0 W/m 1,0 C -4,6 C 19,3 km/h (3 Bft) 100,00 %
23.01.2016 18:55 1,8 C 97 % 1036,8 hPa 0,0 l/m 14,5 km/h (3 Bft) W-SW 247 0 min 0,000 mm 0,0 UV-I 0 W/m 1,4 C -4,5 C 24,1 km/h (4 Bft) 100,00 %
23.01.2016 19:00 2,1 C 97 % 1036,9 hPa 0,0 l/m 16,8 km/h (3 Bft) W 260 0 min 0,000 mm 0,0 UV-I 0 W/m 1,7 C -5,4 C 25,7 km/h (4 Bft) 100,00 %
23.01.2016 19:05 2,3 C 97 % 1036,9 hPa 0,0 l/m 14,2 km/h (3 Bft) W-SW 252 0 min 0,000 mm 0,0 UV-I 0 W/m 1,9 C -3,7 C 20,9 km/h (4 Bft) 98,21 %
23.01.2016 19:10 2,4 C 96 % 1036,9 hPa 0,0 l/m 14,3 km/h (3 Bft) W 260 0 min 0,000 mm 0,0 UV-I 0 W/m 1,8 C -3,7 C 22,5 km/h (4 Bft) 99,21 %
23.01.2016 19:15 2,5 C 96 % 1037,0 hPa 0,0 l/m 12,1 km/h (2 Bft) N-NW 332 0 min 0,000 mm 0,0 UV-I 0 W/m 1,9 C -2,2 C 19,3 km/h (3 Bft) 99,17 %
23.01.2016 19:20 2,6 C 96 % 1037,1 hPa 0,0 l/m 13,5 km/h (3 Bft) W-SW 250 0 min 0,000 mm 0,0 UV-I 0 W/m 2,0 C -3,0 C 20,9 km/h (4 Bft) 99,12 %
23.01.2016 19:25 2,6 C 95 % 1037,2 hPa 0,0 l/m 11,4 km/h (2 Bft) W-NW 284 0 min 0,000 mm 0,0 UV-I 0 W/m 1,9 C -1,6 C 20,9 km/h (4 Bft) 96,61 %
23.01.2016 19:30 2,7 C 95 % 1037,3 hPa 0,0 l/m 13,2 km/h (3 Bft) W-SW 257 0 min 0,000 mm 0,0 UV-I 0 W/m 2,0 C -2,7 C 22,5 km/h (4 Bft) 96,43 %
23.01.2016 19:35 2,7 C 95 % 1037,3 hPa 0,0 l/m 11,3 km/h (2 Bft) W 261 0 min 0,000 mm 0,0 UV-I 0 W/m 2,0 C -1,4 C 20,9 km/h (4 Bft) 95,73 %
23.01.2016 19:40 2,7 C 95 % 1037,4 hPa 0,0 l/m 11,4 km/h (2 Bft) W-NW 283 0 min 0,000 mm 0,0 UV-I 0 W/m 2,0 C -1,5 C 19,3 km/h (3 Bft) 96,43 %
23.01.2016 19:45 2,7 C 95 % 1037,4 hPa 0,0 l/m 10,7 km/h (2 Bft) W-SW 246 0 min 0,000 mm 0,0 UV-I 0 W/m 2,0 C -1,0 C 20,9 km/h (4 Bft) 96,92 %
23.01.2016 19:50 2,7 C 95 % 1037,3 hPa 0,0 l/m 13,7 km/h (3 Bft) W-SW 242 0 min 0,000 mm 0,0 UV-I 0 W/m 2,0 C -3,0 C 20,9 km/h (4 Bft) 97,22 %
23.01.2016 19:55 2,7 C 94 % 1037,4 hPa 0,0 l/m 13,3 km/h (3 Bft) W-NW 283 0 min 0,000 mm 0,0 UV-I 0 W/m 1,8 C -2,7 C 20,9 km/h (4 Bft) 98,39 %
23.01.2016 20:00 2,6 C 95 % 1037,5 hPa 0,0 l/m 12,7 km/h (3 Bft) W-NW 282 0 min 0,000 mm 0,0 UV-I 0 W/m 1,9 C -2,5 C 22,5 km/h (4 Bft) 99,12 %
23.01.2016 20:05 2,7 C 95 % 1037,5 hPa 0,0 l/m 13,5 km/h (3 Bft) W 259 0 min 0,000 mm 0,0 UV-I 0 W/m 2,0 C -2,8 C 24,1 km/h (4 Bft) 97,46 %
23.01.2016 20:10 2,7 C 94 % 1037,5 hPa 0,0 l/m 13,7 km/h (3 Bft) W-SW 247 0 min 0,000 mm 0,0 UV-I 0 W/m 1,8 C -3,0 C 24,1 km/h (4 Bft) 99,17 %
23.01.2016 20:15 2,7 C 94 % 1037,6 hPa 0,0 l/m 15,5 km/h (3 Bft) W-SW 257 0 min 0,000 mm 0,0 UV-I 0 W/m 1,8 C -4,0 C 22,5 km/h (4 Bft) 99,07 %
23.01.2016 20:20 2,7 C 94 % 1037,7 hPa 0,0 l/m 13,8 km/h (3 Bft) W-SW 242 0 min 0,000 mm 0,0 UV-I 0 W/m 1,8 C -3,0 C 19,3 km/h (3 Bft) 100,00 %
23.01.2016 20:25 2,7 C 94 % 1037,7 hPa 0,0 l/m 12,0 km/h (2 Bft) W-SW 257 0 min 0,000 mm 0,0 UV-I 0 W/m 1,8 C -1,9 C 20,9 km/h (4 Bft) 100,00 %
23.01.2016 20:30 2,8 C 94 % 1037,8 hPa 0,0 l/m 13,1 km/h (3 Bft) W 275 0 min 0,000 mm 0,0 UV-I 0 W/m 1,9 C -2,5 C 22,5 km/h (4 Bft) 100,00 %
23.01.2016 20:35 2,8 C 94 % 1037,8 hPa 0,0 l/m 13,3 km/h (3 Bft) W-SW 250 0 min 0,000 mm 0,0 UV-I 0 W/m 1,9 C -2,6 C 20,9 km/h (4 Bft) 99,17 %
23.01.2016 20:40 2,8 C 94 % 1037,8 hPa 0,0 l/m 13,1 km/h (3 Bft) W-SW 239 0 min 0,000 mm 0,0 UV-I 0 W/m 1,9 C -2,5 C 22,5 km/h (4 Bft) 100,00 %
23.01.2016 20:45 2,8 C 94 % 1037,8 hPa 0,0 l/m 13,9 km/h (3 Bft) W 259 0 min 0,000 mm 0,0 UV-I 0 W/m 1,9 C -3,0 C 20,9 km/h (4 Bft) 100,00 %
23.01.2016 20:50 2,8 C 94 % 1037,8 hPa 0,0 l/m 11,6 km/h (2 Bft) SW 227 0 min 0,000 mm 0,0 UV-I 0 W/m 1,9 C -1,5 C 17,7 km/h (3 Bft) 100,00 %
23.01.2016 20:55 2,8 C 93 % 1037,8 hPa 0,0 l/m 11,6 km/h (2 Bft) W-SW 248 0 min 0,000 mm 0,0 UV-I 0 W/m 1,8 C -1,5 C 20,9 km/h (4 Bft) 98,37 %
23.01.2016 21:00 2,8 C 93 % 1037,9 hPa 0,0 l/m 11,9 km/h (2 Bft) W 277 0 min 0,000 mm 0,0 UV-I 0 W/m 1,8 C -1,7 C 17,7 km/h (3 Bft) 100,00 %
23.01.2016 21:05 2,9 C 93 % 1037,9 hPa 0,0 l/m 13,8 km/h (3 Bft) W-SW 250 0 min 0,000 mm 0,0 UV-I 0 W/m 1,9 C -2,8 C 22,5 km/h (4 Bft) 100,00 %
23.01.2016 21:10 2,9 C 93 % 1037,9 hPa 0,0 l/m 10,9 km/h (2 Bft) W-SW 245 0 min 0,000 mm 0,0 UV-I 0 W/m 1,9 C -0,9 C 19,3 km/h (3 Bft) 98,33 %
23.01.2016 21:15 2,8 C 93 % 1037,8 hPa 0,0 l/m 10,7 km/h (2 Bft) W 271 0 min 0,000 mm 0,0 UV-I 0 W/m 1,8 C -0,9 C 16,1 km/h (3 Bft) 100,00 %
23.01.2016 21:20 2,9 C 93 % 1037,9 hPa 0,0 l/m 8,9 km/h (2 Bft) W-SW 243 0 min 0,000 mm 0,0 UV-I 0 W/m 1,9 C 0,6 C 16,1 km/h (3 Bft) 99,11 %
23.01.2016 21:25 2,9 C 93 % 1037,8 hPa 0,0 l/m 9,9 km/h (2 Bft) SW 219 0 min 0,000 mm 0,0 UV-I 0 W/m 1,9 C -0,2 C 17,7 km/h (3 Bft) 100,00 %
23.01.2016 21:30 2,9 C 93 % 1037,9 hPa 0,0 l/m 11,6 km/h (2 Bft) W-SW 257 0 min 0,000 mm 0,0 UV-I 0 W/m 1,9 C -1,4 C 17,7 km/h (3 Bft) 97,52 %
23.01.2016 21:35 3,0 C 93 % 1037,9 hPa 0,0 l/m 9,4 km/h (2 Bft) W-NW 288 0 min 0,000 mm 0,0 UV-I 0 W/m 2,0 C 0,3 C 14,5 km/h (3 Bft) 97,37 %
23.01.2016 21:40 2,9 C 93 % 1038,0 hPa 0,0 l/m 9,2 km/h (2 Bft) W 263 0 min 0,000 mm 0,0 UV-I 0 W/m 1,9 C 0,4 C 20,9 km/h (4 Bft) 95,87 %
23.01.2016 21:45 3,0 C 93 % 1038,0 hPa 0,0 l/m 12,3 km/h (3 Bft) W-SW 249 0 min 0,000 mm 0,0 UV-I 0 W/m 2,0 C -1,7 C 19,3 km/h (3 Bft) 95,76 %
23.01.2016 21:50 3,1 C 93 % 1038,0 hPa 0,0 l/m 12,3 km/h (3 Bft) W 259 0 min 0,000 mm 0,0 UV-I 0 W/m 2,1 C -1,6 C 17,7 km/h (3 Bft) 96,75 %
23.01.2016 21:55 3,1 C 92 % 1038,0 hPa 0,0 l/m 10,7 km/h (2 Bft) W 268 0 min 0,000 mm 0,0 UV-I 0 W/m 1,9 C -0,5 C 20,9 km/h (4 Bft) 97,17 %
23.01.2016 22:00 3,1 C 92 % 1038,0 hPa 0,0 l/m 11,1 km/h (2 Bft) SW 233 0 min 0,000 mm 0,0 UV-I 0 W/m 1,9 C -0,8 C 19,3 km/h (3 Bft) 96,52 %
23.01.2016 22:05 3,1 C 92 % 1038,0 hPa 0,2 l/m 9,9 km/h (2 Bft) SW 229 0 min 0,000 mm 0,0 UV-I 0 W/m 1,9 C 0,0 C 17,7 km/h (3 Bft) 97,56 %
23.01.2016 22:10 3,1 C 92 % 1037,9 hPa 0,0 l/m 12,1 km/h (2 Bft) SW 223 0 min 0,000 mm 0,0 UV-I 0 W/m 1,9 C -1,5 C 17,7 km/h (3 Bft) 97,46 %
23.01.2016 22:15 3,0 C 92 % 1038,0 hPa 0,2 l/m 9,5 km/h (2 Bft) W-SW 247 0 min 0,000 mm 0,0 UV-I 0 W/m 1,8 C 0,2 C 16,1 km/h (3 Bft) 97,44 %
23.01.2016 22:20 2,9 C 92 % 1038,0 hPa 0,0 l/m 9,6 km/h (2 Bft) W-SW 240 0 min 0,000 mm 0,0 UV-I 0 W/m 1,7 C 0,1 C 16,1 km/h (3 Bft) 100,00 %
23.01.2016 22:25 2,8 C 92 % 1037,9 hPa 0,2 l/m 11,3 km/h (2 Bft) SW 236 0 min 0,000 mm 0,0 UV-I 0 W/m 1,6 C -1,3 C 20,9 km/h (4 Bft) 100,00 %
23.01.2016 22:30 2,8 C 92 % 1038,0 hPa 0,2 l/m 9,7 km/h (2 Bft) W-SW 253 0 min 0,000 mm 0,0 UV-I 0 W/m 1,6 C -0,1 C 16,1 km/h (3 Bft) 99,07 %
23.01.2016 22:35 2,8 C 93 % 1038,0 hPa 0,0 l/m 12,4 km/h (3 Bft) S-SW 211 0 min 0,000 mm 0,0 UV-I 0 W/m 1,8 C -2,0 C 22,5 km/h (4 Bft) 99,17 %
23.01.2016 22:40 2,9 C 93 % 1037,9 hPa 0,2 l/m 12,1 km/h (2 Bft) W-SW 239 0 min 0,000 mm 0,0 UV-I 0 W/m 1,9 C -1,7 C 17,7 km/h (3 Bft) 100,00 %
23.01.2016 22:45 2,9 C 93 % 1037,9 hPa 0,0 l/m 10,4 km/h (2 Bft) W 262 0 min 0,000 mm 0,0 UV-I 0 W/m 1,9 C -0,5 C 16,1 km/h (3 Bft) 99,21 %
23.01.2016 22:50 2,8 C 93 % 1038,0 hPa 0,2 l/m 12,3 km/h (3 Bft) SW 235 0 min 0,000 mm 0,0 UV-I 0 W/m 1,8 C -2,0 C 19,3 km/h (3 Bft) 98,43 %
23.01.2016 22:55 2,8 C 93 % 1037,9 hPa 0,0 l/m 11,8 km/h (2 Bft) W-SW 239 0 min 0,000 mm 0,0 UV-I 0 W/m 1,8 C -1,6 C 17,7 km/h (3 Bft) 100,00 %
23.01.2016 23:00 2,7 C 93 % 1037,9 hPa 0,0 l/m 9,4 km/h (2 Bft) SW 224 0 min 0,000 mm 0,0 UV-I 0 W/m 1,7 C 0,0 C 16,1 km/h (3 Bft) 100,00 %
23.01.2016 23:05 2,7 C 93 % 1037,9 hPa 0,0 l/m 9,1 km/h (2 Bft) W-SW 243 0 min 0,000 mm 0,0 UV-I 0 W/m 1,7 C 0,2 C 14,5 km/h (3 Bft) 98,17 %
23.01.2016 23:10 2,7 C 93 % 1037,8 hPa 0,2 l/m 11,0 km/h (2 Bft) W 261 0 min 0,000 mm 0,0 UV-I 0 W/m 1,7 C -1,2 C 16,1 km/h (3 Bft) 99,17 %
23.01.2016 23:15 2,8 C 94 % 1037,8 hPa 0,0 l/m 11,0 km/h (2 Bft) W 265 0 min 0,000 mm 0,0 UV-I 0 W/m 1,9 C -1,1 C 19,3 km/h (3 Bft) 100,00 %
23.01.2016 23:20 2,9 C 94 % 1037,8 hPa 0,2 l/m 13,5 km/h (3 Bft) W-SW 258 0 min 0,000 mm 0,0 UV-I 0 W/m 2,0 C -2,6 C 22,5 km/h (4 Bft) 100,00 %
23.01.2016 23:25 3,1 C 93 % 1037,8 hPa 0,0 l/m 14,1 km/h (3 Bft) W 265 0 min 0,000 mm 0,0 UV-I 0 W/m 2,1 C -2,7 C 20,9 km/h (4 Bft) 99,19 %
23.01.2016 23:30 3,1 C 92 % 1037,7 hPa 0,0 l/m 10,0 km/h (2 Bft) W-SW 257 0 min 0,000 mm 0,0 UV-I 0 W/m 1,9 C -0,0 C 17,7 km/h (3 Bft) 100,00 %
23.01.2016 23:35 3,1 C 92 % 1037,6 hPa 0,2 l/m 9,5 km/h (2 Bft) SW 232 0 min 0,000 mm 0,0 UV-I 0 W/m 1,9 C 0,4 C 17,7 km/h (3 Bft) 100,00 %
23.01.2016 23:40 3,0 C 92 % 1037,6 hPa 0,0 l/m 10,7 km/h (2 Bft) SW 234 0 min 0,000 mm 0,0 UV-I 0 W/m 1,8 C -0,7 C 20,9 km/h (4 Bft) 97,44 %
23.01.2016 23:45 2,9 C 93 % 1037,6 hPa 0,0 l/m 11,2 km/h (2 Bft) SW 225 0 min 0,000 mm 0,0 UV-I 0 W/m 1,9 C -1,1 C 17,7 km/h (3 Bft) 95,28 %
23.01.2016 23:50 2,8 C 93 % 1037,6 hPa 0,2 l/m 11,0 km/h (2 Bft) W-SW 243 0 min 0,000 mm 0,0 UV-I 0 W/m 1,8 C -1,1 C 17,7 km/h (3 Bft) 97,89 %
_ Min-Zeit 01:25 00:10 04:20 - 08:30 - - - - - - 01:25 01:25 08:30 00:25
Minimum _ -13,6 C 89 % 1031,5 hPa - 0,0 km/h (0 Bft) - - - - - - -14,9 C -13,6 C 0,0 km/h (0 Bft) 80,17 %
_ Max-Zeit 22:00 17:00 21:40 22:05 19:00 - - 00:00 15:00 00:00 11:00 21:50 21:20 19:00 01:10
Maximum _ 3,2 C 97 % 1038,0 hPa 0,2 l/m 16,8 km/h
W (3 Bft)
- - 0 min 0,026 mm 0,0 UV-I 48 W/m 2,1 C 0,6 C 25,7 km/h
W-SW (4 Bft)
100,00 %
Durchschnitt _ -5,0 C 93 % 1034,3 hPa #2,0 l/m 5,9 km/h (2 Bft) W - #0 min. #0,051 mm 0,0 UV-I 25 W/m -5,9 C -6,6 C 10,4 km/h (2 Bft) 98,54 %